Date String (YYYY-MM-DD hh:mm:ss) UTC,Instrument flags,Ambient pressure (hPa),Sample flow (lpm),Bypass flow (lpm),Sample temperature (°C),Ambient temperature (°C),ASC tube jacket temperature (°C),LED temperature (°C),Box temperature (°C),Sample RH (%),Span deviation,Mass concentration (μg/m³),Mass concentration (μg/m³),Mass concentration (μg/m³)
DateTimeUTC,F1_M11,P_M11,Q1_M11,Q2_M11,T1_M11,T2_M11,T3_M11,T4_M11,T5_M11,U1_M11,ZSPAN_M11,X0_M11,X2_M11,X1_M11
2022-08-28 06:00:00,,0821.4,5.00,0.00,30.0,28.3,00.0,38.7,31.9,15.0,0000.0,0008.63,0003.59,0003.14
2022-08-28 06:01:00,,0821.4,5.01,0.00,30.0,27.1,00.0,38.7,31.7,15.0,0000.0,0008.70,0003.58,0003.15
2022-08-28 06:02:00,,0821.4,4.99,0.00,29.9,27.0,00.0,38.6,31.7,14.9,0000.0,0008.62,0003.57,0003.16
2022-08-28 06:03:00,,0821.4,5.00,0.00,29.9,27.2,00.0,38.6,31.6,14.9,0000.0,0008.59,0003.57,0003.17
2022-08-28 06:04:00,,0821.4,5.00,0.00,29.8,27.5,00.0,38.6,31.5,15.0,0000.0,0007.61,0003.54,0003.18
2022-08-28 06:05:00,,0821.4,4.99,0.00,29.8,27.8,00.0,38.6,31.5,15.1,0000.0,0007.60,0003.53,0003.18
2022-08-28 06:06:00,,0821.4,4.99,0.00,29.8,28.0,00.0,38.6,31.5,15.2,0000.0,0007.36,0003.51,0003.18
2022-08-28 06:07:00,,0821.4,5.01,0.00,29.8,28.2,00.0,38.6,31.6,15.2,0000.0,0007.26,0003.52,0003.18
2022-08-28 06:08:00,,0821.4,4.99,0.00,29.8,28.3,00.0,38.6,31.6,15.2,0000.0,0007.34,0003.52,0003.17
2022-08-28 06:09:00,,0821.4,5.01,0.00,29.8,28.4,00.0,38.6,31.6,15.2,0000.0,0006.76,0003.51,0003.17
2022-08-28 06:10:00,,0821.4,4.99,0.00,29.8,28.6,00.0,38.6,31.7,15.1,0000.0,0006.74,0003.50,0003.16
2022-08-28 06:11:00,,0821.4,5.00,0.00,29.8,28.6,00.0,38.6,31.7,15.0,0000.0,0006.60,0003.49,0003.17
2022-08-28 06:12:00,,0821.4,5.01,0.00,29.9,28.7,00.0,38.6,31.7,14.9,0000.0,0006.40,0003.51,0003.17
2022-08-28 06:13:00,,0821.3,4.99,0.00,29.9,28.8,00.0,38.6,31.8,14.9,0000.0,0006.69,0003.53,0003.16
2022-08-28 06:14:00,,0821.4,4.99,0.00,29.9,28.8,00.0,38.6,31.7,15.0,0000.0,0006.93,0003.53,0003.16
2022-08-28 06:15:00,,0821.4,5.01,0.00,29.9,28.9,00.0,38.6,31.8,15.0,0000.0,0006.95,0003.54,0003.16
2022-08-28 06:16:00,,0821.4,4.99,0.00,30.0,29.0,00.0,38.7,31.9,14.9,0000.0,0006.96,0003.53,0003.15
2022-08-28 06:17:00,,0821.3,5.00,0.00,30.0,29.0,00.0,38.7,31.9,14.8,0000.0,0006.99,0003.53,0003.16
2022-08-28 06:18:00,,0821.3,4.99,0.00,30.0,29.0,00.0,38.7,31.9,14.6,0000.0,0006.90,0003.51,0003.16
2022-08-28 06:19:00,,0821.3,4.99,0.00,30.0,29.0,00.0,38.7,31.9,14.6,0000.0,0006.38,0003.50,0003.16
2022-08-28 06:20:00,,0821.3,5.00,0.00,30.1,29.0,00.0,38.7,31.9,14.7,0000.0,0006.11,0003.49,0003.17
2022-08-28 06:21:00,,0821.3,5.02,0.00,30.1,28.1,00.0,38.7,31.9,14.6,0000.0,0006.09,0003.52,0003.17
2022-08-28 06:22:00,,0821.3,4.99,0.00,30.0,27.1,00.0,38.7,31.8,14.6,0000.0,0006.25,0003.53,0003.18
2022-08-28 06:23:00,,0821.3,5.01,0.00,30.0,27.1,00.0,38.7,31.8,14.6,0000.0,0006.23,0003.51,0003.17
2022-08-28 06:24:00,,0821.3,4.99,0.00,29.9,27.3,00.0,38.7,31.6,14.7,0000.0,0006.04,0003.51,0003.17
2022-08-28 06:25:00,,0821.2,4.99,0.00,29.9,27.6,00.0,38.6,31.6,14.6,0000.0,0005.78,0003.51,0003.15
2022-08-28 06:26:00,,0821.2,5.00,0.00,29.9,27.9,00.0,38.6,31.6,14.7,0000.0,0005.95,0003.51,0003.14
2022-08-28 06:27:00,,0821.1,5.00,0.00,29.9,28.1,00.0,38.6,31.6,14.6,0000.0,0006.57,0003.51,0003.13
2022-08-28 06:28:00,,0821.2,5.00,0.00,29.9,28.2,00.0,38.6,31.6,14.7,0000.0,0007.36,0003.55,0003.12
2022-08-28 06:29:00,,0821.2,4.99,0.00,29.9,28.3,00.0,38.6,31.7,14.5,0000.0,0007.69,0003.56,0003.11
2022-08-28 06:30:00,,0821.2,5.01,0.00,29.9,28.5,00.0,38.6,31.7,14.5,0000.0,0007.96,0003.56,0003.06
2022-08-28 06:31:00,,0821.2,5.00,0.00,29.9,28.5,00.0,38.6,31.7,14.6,0000.0,0007.99,0003.57,0003.03
2022-08-28 06:32:00,,0821.2,5.00,0.00,29.9,28.6,00.0,38.6,31.7,14.6,0000.0,0007.92,0003.53,0002.99
2022-08-28 06:33:00,,0821.2,5.00,0.00,29.9,28.7,00.0,38.6,31.8,14.4,0000.0,0007.90,0003.52,0002.95
2022-08-28 06:34:00,,0821.2,5.01,0.00,29.9,28.8,00.0,38.7,31.8,14.3,0000.0,0008.05,0003.53,0002.94
2022-08-28 06:35:00,,0821.1,5.00,0.00,29.9,28.8,00.0,38.7,31.8,14.2,0000.0,0008.04,0003.52,0002.92
2022-08-28 06:36:00,,0821.1,4.99,0.00,30.0,28.9,00.0,38.7,31.8,14.3,0000.0,0007.92,0003.47,0002.92
2022-08-28 06:37:00,,0821.1,5.01,0.00,30.0,28.9,00.0,38.7,31.9,14.2,0000.0,0008.20,0003.46,0002.92
2022-08-28 06:38:00,,0821.2,4.99,0.00,30.0,28.9,00.0,38.7,31.9,14.2,0000.0,0007.89,0003.42,0002.90
2022-08-28 06:39:00,,0821.2,4.99,0.00,30.0,29.0,00.0,38.8,31.9,14.3,0000.0,0007.44,0003.36,0002.87
2022-08-28 06:40:00,,0821.1,5.00,0.00,30.1,29.0,00.0,38.8,32.0,14.3,0000.0,0006.93,0003.35,0002.88
2022-08-28 06:41:00,,0821.1,4.99,0.00,30.1,29.1,00.0,38.8,32.0,14.3,0000.0,0006.50,0003.36,0002.90
2022-08-28 06:42:00,,0821.1,5.01,0.00,30.1,29.1,00.0,38.8,32.0,14.2,0000.0,0006.47,0003.32,0002.89
2022-08-28 06:43:00,,0821.2,4.99,0.00,30.1,29.1,00.0,38.8,32.0,14.2,0000.0,0006.49,0003.32,0002.91
2022-08-28 06:44:00,,0821.2,5.01,0.00,30.2,29.1,00.0,38.8,32.0,14.2,0000.0,0006.35,0003.30,0002.92
2022-08-28 06:45:00,,0821.1,5.00,0.00,30.2,28.2,00.0,38.8,32.0,14.3,0000.0,0006.20,0003.29,0002.92
2022-08-28 06:46:00,,0821.1,4.99,0.00,30.1,27.2,00.0,38.8,31.9,14.3,0000.0,0006.22,0003.30,0002.93
2022-08-28 06:47:00,,0821.1,5.01,0.00,30.1,27.2,00.0,38.8,31.8,14.2,0000.0,0006.50,0003.33,0002.95
2022-08-28 06:48:00,,0821.1,5.00,0.00,30.0,27.4,00.0,38.7,31.7,14.3,0000.0,0005.90,0003.34,0002.96
2022-08-28 06:49:00,,0821.1,5.02,0.00,30.0,27.6,00.0,38.7,31.7,14.4,0000.0,0006.87,0003.37,0002.98
2022-08-28 06:50:00,,0821.1,5.01,0.00,29.9,27.9,00.0,38.7,31.7,14.2,0000.0,0007.52,0003.38,0002.98
2022-08-28 06:51:00,,0821.1,4.98,0.00,29.9,28.1,00.0,38.7,31.7,14.3,0000.0,0007.71,0003.39,0002.97
2022-08-28 06:52:00,,0821.1,5.00,0.00,29.9,28.3,00.0,38.7,31.7,14.3,0000.0,0007.92,0003.37,0002.96
2022-08-28 06:53:00,,0821.2,5.00,0.00,29.9,28.4,00.0,38.7,31.7,14.3,0000.0,0008.10,0003.40,0002.96
2022-08-28 06:54:00,,0821.1,4.99,0.00,29.9,28.5,00.0,38.7,31.7,14.4,0000.0,0008.26,0003.42,0002.96
2022-08-28 06:55:00,,0821.1,5.01,0.00,29.9,28.6,00.0,38.7,31.8,14.4,0000.0,0008.34,0003.41,0002.96
2022-08-28 06:56:00,,0821.1,4.99,0.00,29.9,28.7,00.0,38.7,31.8,14.3,0000.0,0008.26,0003.40,0002.95
2022-08-28 06:57:00,,0821.1,4.99,0.00,30.0,28.8,00.0,38.7,31.8,14.4,0000.0,0008.27,0003.40,0002.94
2022-08-28 06:58:00,,0821.2,5.01,0.00,30.0,28.8,00.0,38.7,31.9,14.2,0000.0,0008.38,0003.42,0002.93
2022-08-28 06:59:00,,0821.1,5.00,0.00,30.0,28.9,00.0,38.8,31.9,14.2,0000.0,0008.65,0003.44,0002.92
